Opa Locka, FL

5:49 PM EDT on July 24, 2017 (GMT -0400)
Opa Locka

Weather History for KOPF - May, 2013

Change the Weather History Date:

Thursday, May 2, 2013

  Actual Average Record
Temperature  
Mean Temperature 75 °F -  
Max Temperature 81 °F 83 °F 93 °F (2005)
Min Temperature 69 °F 69 °F 56 °F (1955)
Cooling Degree Days 10    
Growing Degree Days 25 (Base 50)    
Moisture  
Dew Point 69 °F    
Average Humidity 88    
Maximum Humidity 96    
Minimum Humidity 67    
Precipitation  
Precipitation 1.81 in - - ()
Sea Level Pressure  
Sea Level Pressure 29.88 in    
Wind  
Wind Speed 7 mph (ENE)    
Max Wind Speed 18 mph    
Max Gust Speed 23 mph    
Visibility 8 miles    
Events Rain , Thunderstorm    
Averages and records for this station are not official NWS values.
T = Trace of Precipitation, MM = Missing Value Source: NWS Daily Summary

Daily Weather History Graph

Daily Weather History Graph

Search for Another Location

Airport or City:

Trip Planner

Search our weather history database for the weather conditions in past years. The results will help you decide how hot, cold, wet, or windy it might be!

Date:

Astronomy

May. 02, 2013 Rise Set
Actual Time 6:43 AM EDT 7:53 PM EDT
Civil Twilight 6:18 AM EDT 8:17 PM EDT
Nautical Twilight 5:50 AM EDT 8:46 PM EDT
Astronomical Twilight 5:20 AM EDT 9:16 PM EDT
Moon 1:46 AM EDT (5/2) 1:21 PM EDT (5/2)
Length of Visible Light 13h 58m
Length of Day
13h 09m
Waning Gibbous, 48% of the Moon is Illuminated
May 2
Waning Gibbous
May 9
New
May 18
First Quarter
May 25
Full
May 31
Last Quarter

Hourly Weather History & Observations

Time (EDT) Temp. Heat Index Dew Point Humidity Pressure Visibility Wind Dir Wind Speed Gust Speed Precip Events Conditions
12:05 AM 71.6 °F - 69.8 °F 94% 29.97 in 10.0 mi East 4.6 mph - 0.00 in   Mostly Cloudy
12:21 AM 71.6 °F - 69.8 °F 94% 29.95 in 10.0 mi East 5.8 mph - 0.00 in Thunderstorm Partly Cloudy
12:43 AM 71.6 °F - 69.8 °F 94% 29.94 in 10.0 mi ENE 5.8 mph - 0.00 in   Partly Cloudy
12:53 AM 72.0 °F - 69.1 °F 91% 29.95 in 10.0 mi East 3.5 mph - 0.00 in   Scattered Clouds
1:53 AM 72.0 °F - 70.0 °F 93% 29.92 in 10.0 mi SSE 3.5 mph - N/A   Mostly Cloudy
2:53 AM 73.0 °F - 71.1 °F 93% 29.92 in 10.0 mi Calm Calm - N/A   Overcast
3:53 AM 73.0 °F - 71.1 °F 93% 29.92 in 10.0 mi Calm Calm - N/A   Overcast
4:53 AM 73.0 °F - 71.1 °F 93% 29.90 in 10.0 mi SE 3.5 mph - N/A   Mostly Cloudy
5:53 AM 73.0 °F - 69.1 °F 87% 29.91 in 10.0 mi SE 10.4 mph - N/A   Mostly Cloudy
6:53 AM 72.0 °F - 70.0 °F 93% 29.91 in 10.0 mi SSE 3.5 mph - N/A   Mostly Cloudy
7:53 AM 73.9 °F - 71.1 °F 91% 29.92 in 10.0 mi ESE 3.5 mph - N/A   Overcast
8:53 AM 75.9 °F - 72.0 °F 87% 29.92 in 10.0 mi SSE 6.9 mph - 0.00 in   Overcast
9:53 AM 78.1 °F - 72.0 °F 81% 29.92 in 10.0 mi SSE 8.1 mph - N/A   Overcast
10:53 AM 80.1 °F 82.9 °F 69.1 °F 69% 29.92 in 10.0 mi SSE 13.8 mph - N/A   Mostly Cloudy
11:53 AM 80.1 °F 82.7 °F 68.0 °F 67% 29.91 in 10.0 mi SE 10.4 mph - N/A   Mostly Cloudy
12:53 PM 81.0 °F 84.1 °F 69.1 °F 67% 29.89 in 10.0 mi South 15.0 mph - N/A   Mostly Cloudy
1:53 PM 80.1 °F 83.2 °F 70.0 °F 71% 29.88 in 10.0 mi SSE 12.7 mph - N/A   Mostly Cloudy
2:12 PM 78.8 °F - 71.6 °F 78% 29.87 in 9.0 mi South 15.0 mph - 0.02 in Thunderstorm Thunderstorm
2:20 PM 75.2 °F - 71.6 °F 89% 29.87 in 2.0 mi SSW 8.1 mph - 0.10 in Rain , Thunderstorm Thunderstorms and Rain
2:23 PM 75.2 °F - 71.6 °F 89% 29.87 in 6.0 mi Variable 6.9 mph - 0.11 in Rain , Thunderstorm Heavy Thunderstorms and Rain
2:37 PM 77.0 °F - 71.6 °F 83% 29.87 in 10.0 mi South 8.1 mph - 0.14 in Rain , Thunderstorm Light Thunderstorms and Rain
2:46 PM 77.0 °F - 71.6 °F 83% 29.86 in 10.0 mi South 5.8 mph - 0.14 in Thunderstorm Thunderstorm
2:53 PM 77.0 °F - 72.0 °F 84% 29.86 in 10.0 mi South 13.8 mph 18.4 mph 0.14 in   Overcast
3:01 PM 77.0 °F - 71.6 °F 83% 29.85 in 10.0 mi South 12.7 mph - N/A   Overcast
3:38 PM 71.6 °F - 66.2 °F 83% 29.85 in 2.0 mi NNW 17.3 mph 23.0 mph 0.03 in Rain Rain
3:43 PM 69.8 °F - 68.0 °F 94% 29.86 in 2.0 mi WNW 10.4 mph 23.0 mph 0.10 in Rain Heavy Rain
3:53 PM 69.1 °F - 66.9 °F 93% 29.85 in 2.0 mi WNW 18.4 mph - 0.64 in Rain Heavy Rain
4:00 PM 69.8 °F - 66.2 °F 88% 29.85 in 1.2 mi WNW 18.4 mph 23.0 mph 0.29 in Rain Heavy Rain
4:09 PM 69.8 °F - 68.0 °F 94% 29.86 in 1.2 mi NW 16.1 mph - 0.51 in Rain , Thunderstorm Heavy Thunderstorms and Rain
4:12 PM 69.8 °F - 68.0 °F 94% 29.87 in 2.0 mi NW 15.0 mph - 0.57 in Rain Heavy Rain
4:19 PM 69.8 °F - 68.0 °F 94% 29.86 in 1.5 mi NW 18.4 mph 23.0 mph 0.68 in Rain Heavy Rain
4:31 PM 69.8 °F - 68.0 °F 94% 29.86 in 2.0 mi NNW 12.7 mph - 0.81 in Rain Heavy Rain
4:40 PM 69.8 °F - 68.0 °F 94% 29.86 in 2.0 mi NNW 13.8 mph - 0.84 in Rain Rain
4:53 PM 69.1 °F - 68.0 °F 96% 29.86 in 2.0 mi NNW 11.5 mph - 0.86 in Rain Light Rain
5:12 PM 69.8 °F - 68.0 °F 94% 29.86 in 2.0 mi North 6.9 mph - 0.06 in Rain Rain
5:53 PM 70.0 °F - 68.0 °F 93% 29.86 in 4.0 mi NNE 10.4 mph - 0.14 in Rain Light Rain
6:53 PM 70.0 °F - 68.0 °F 93% 29.82 in 10.0 mi NE 11.5 mph - 0.02 in Rain Light Rain
7:53 PM 71.1 °F - 68.0 °F 90% 29.81 in 10.0 mi ENE 12.7 mph 18.4 mph 0.01 in   Scattered Clouds
8:53 PM 72.0 °F - 68.0 °F 87% 29.83 in 10.0 mi Calm Calm - N/A   Overcast
9:50 PM 71.6 °F - 68.0 °F 88% 29.85 in 10.0 mi NW 4.6 mph - N/A   Mostly Cloudy
9:53 PM 72.0 °F - 68.0 °F 87% 29.85 in 10.0 mi NNW 4.6 mph - N/A   Mostly Cloudy
10:22 PM 71.6 °F - 68.0 °F 88% 29.84 in 10.0 mi NNW 3.5 mph - N/A   Mostly Cloudy
10:53 PM 71.1 °F - 68.0 °F 90% 29.84 in 10.0 mi NW 4.6 mph - N/A   Partly Cloudy
11:24 PM 71.6 °F - 69.8 °F 94% 29.83 in 10.0 mi North 3.5 mph - N/A   Mostly Cloudy
11:37 PM 71.6 °F - 69.8 °F 94% 29.83 in 10.0 mi Calm Calm - N/A   Scattered Clouds
11:53 PM 70.0 °F - 68.0 °F 93% 29.83 in 10.0 mi West 4.6 mph - N/A   Partly Cloudy